{"data":{"norad_id":66750,"intl_designator":"2025-276CN","name":"TRANSPORTER-15 OBJECT CN","alt_names":[],"object_type":"PAYLOAD","status":"ACTIVE","operator":null,"country":"TBD","launch_date":"2025-11-28","launch_site_code":"AFWTR","launch_vehicle":null,"mission":null,"orbit_class":"UNKNOWN","rcs_meters":null,"size_class":null,"mass_kg":null,"dimensions":null,"purposes":[],"wikipedia_slug":null,"has_3d_model":false,"image_url":null,"decayed_at":null,"tle_current":{"epoch":"2026-05-25T04:21:15.619392Z","epoch_age_seconds":53371,"freshness":"FRESH","line1":"1 66750U 25276CN  26145.18143078  .00003720  00000+0  17772-3 0  9994","line2":"2 66750  97.4233 219.2820 0002817  56.3667 303.7836 15.19642721 26937","mean_motion":15.19642721,"eccentricity":0.0002817,"inclination_deg":97.4233,"raan_deg":219.282,"arg_perigee_deg":56.3667,"mean_anomaly_deg":303.7836,"bstar":0.00017772,"rev_number":2693,"period_min":94.759115422368,"perigee_km":504.98003300269,"apogee_km":508.85907386489,"semimajor_km":6885.0565534338,"source":"CELESTRAK","updated_at":"2026-05-25T13:38:06.451213Z"}}}